Volver al catálogo

STARONE D2

ActivoComunicacionesGEO
NORAD 49055·PAYLOAD·🇧🇷 Brazil

Lanzado Jul 30, 2021 desde Guiana Space Centre

Loading…

TLE

ActualizadoSource: Space-Track

Época: Sep 14, 2026, 13:28 UTC

1 49055U 21069A   26257.56123428 -.00000273  00000-0  00000-0 0  9997
2 49055   0.0147 147.4033 0002730  25.2239 312.9778  1.00269669 18852

Sigue STARONE D2 en tiempo real con AllMySat

Download on the App Store